Погода в Коккосалме

Россия / Республика Карелия     65°49′26″N   31°31′37″E
темп.,
°C
ветер,
м/с
пор.,
м/с
влажн.,
%
обл.,
%
осадки,
мм/ч
давл.,
гПа
погр.,
м
14 мая, пт
пт1400:00+15в236219 0.0 101150
03:00+12св22775 0.0 101118
06:00+9св49845 0.0 1012304
09:00+10всв587226 0.1 1012492
12:00+9всв5874100 0.1 1013516
15:00+9св587570 0.1 1014446
18:00+11св586847 0.0 1013622
21:00+8св5117816 0.0 1014466
15 мая, сб
сб1500:00+4всв4108851 0.0 1015390
03:00+4св41087100 0.0 1015405
06:00+3всв4888100 0.1 1016408
09:00+4в4784100 0.1 1016480
12:00+6в4677100 0.0 1016567
15:00+8вюв4672100 0.0 1015623
18:00+6в477899 0.0 1014490
21:00+5в388598 0.0 1014461
16 мая, вс
вс1600:00+4всв398998 0.0 1014380
03:00+4в3991100 0.1 1013397
06:00+4всв3890100 0.0 1012351
09:00+4всв3588100 0.1 1012330
12:00+5всв358399 0.0 1012388
15:00+7в2377100 0.0 1012506
18:00+9в237457 0.0 1012573
21:00+7в138590 0.0 101286
17 мая, пн
пн1700:00+6юв2388100 0.0 101382
03:00+5ююв2288100 0.0 101465
06:00+6юв138089 0.0 1014142
09:00+7юв2473100 0.0 1015269
12:00+10вюв2464100 0.0 1016543
15:00+13вюв3453100 0.0 1015772
18:00+13вюв455599 0.0 1015709
21:00+9вюв410700 0.0 1016244
18 мая, вт
вт1800:00+5вюв38790 0.0 1017171
03:00+3вюв2782100 0.0 1016144
06:00+5в3978100 0.0 1015209
09:00+10в596499 0.0 1013377
12:00+14в61270100 0.0 1010649
15:00+15в71465100 0.0 1006717
18:00+12вюв71686100 1.2 1004720
21:00+13ю41088100 1.6 1003485